Location: Washington
(38.8950°N, 77.0370°W)
Time: 04:22:24
(UTC-05:00)

Daily predictions for brighter satellites

Satellite Brightness Start Highest point End
(mag) Time Altitude Azimuth Time Altitude Azimuth Time Altitude Azimuth
CZ-3 R/B 4.1 03:05:09 59° SSW 03:06:57 60° S 03:18:11 10° ESE
Okean O Rocket 3.5 03:58:32 10° NNE 04:01:00 28° NE 04:01:00 28° NE
Cosmos 1980 Rocket 2.4 04:12:53 69° ENE 04:12:53 69° ENE 04:17:59 10° NNE
Cosmos 1821 Rocket 3.9 04:13:54 79° NNE 04:13:54 79° NNE 04:19:46 10° N
ATLAS 5 CENTAUR R/B 3.0 04:18:03 33° SE 04:18:29 34° ESE 04:22:47 10° NE
PAYLOAD B 4.4 04:17:19 10° NNE 04:22:49 70° ESE 04:24:11 50° SSE
Cosmos 1535 Rocket 4.3 04:25:29 67° SSW 04:26:23 86° W 04:32:31 10° N
Cosmos 372 Rocket 3.9 04:32:35 74° SSE 04:32:57 80° ESE 04:38:06 10° NNE
SJ 16-02 2.1 04:39:18 43° N 04:39:18 43° N 04:42:21 10° NNE
IDEFIX/ARIANE 42P 4.3 04:33:29 10° NNE 04:38:08 32° E 04:42:43 10° SSE
BREEZE-M DEB (TANK) 4.1 04:39:13 22° NNE 04:39:55 24° NNE 04:44:52 10° E
Cosmos 1697 Rocket 3.7 04:43:04 31° NNW 04:43:04 31° NNW 04:46:47 10° N
USA 215 3.6 04:39:00 10° SSE 04:45:00 42° SW 04:45:00 42° SW
Cosmos 1125 Rocket 3.3 04:46:12 61° SW 04:47:03 78° WNW 04:52:17 10° NNE
SL-16 R/B 3.0 04:44:24 10° S 04:49:50 49° ESE 04:55:18 10° NNE
Cosmos 1933 3.3 04:52:46 72° NNW 04:52:46 72° NNW 04:56:28 10° N
Meteor 1-31 Rocket 3.8 04:49:05 10° N 04:51:27 36° N 04:51:27 36° N
Hubble Space Telescope 2.7 04:53:32 19° S 04:53:32 19° S 04:56:12 10° SE
COSMO-SKYMED 1 4.0 04:51:12 10° SE 04:55:12 38° ENE 04:59:14 10° N
SJ-6F 4.2 04:51:32 10° N 04:55:38 77° WNW 04:55:44 76° W
Cosmos 1605 Rocket 3.8 04:53:03 10° S 04:59:10 81° W 05:05:17 10° N
CZ-2C R/B 4.0 04:58:11 10° NNE 05:02:57 38° E 05:07:44 10° SSE
Okean-O 4.0 04:58:47 10° NNE 05:02:58 39° E 05:07:06 10° SSE
SEDSat Delta rocket 4.2 05:04:52 30° SSW 05:05:48 32° S 05:09:55 10° SE
CZ-2C R/B 3.8 05:05:30 10° SSE 05:10:10 81° ENE 05:14:48 10° N
Meteor 1-26 Rocket 4.4 05:06:03 10° S 05:11:56 79° E 05:17:46 10° NNE
COSMOS 2455 2.7 05:08:38 10° NNW 05:14:39 73° WSW 05:20:38 10° SSE
Cosmos 1606 4.3 05:13:04 10° SSE 05:16:36 36° E 05:20:06 10° NNE
CZ-4B R/B 3.5 05:12:25 10° N 05:17:36 45° WNW 05:21:43 16° SW
Feng Yun 1-1 Rocket 4.5 05:15:57 10° NNE 05:21:34 76° ESE 05:27:18 10° S
Cosmos 1633 3.7 05:21:01 10° N 05:24:33 46° E 05:28:04 10° SSE
Cosmos 1459 Rocket 4.4 05:22:06 10° S 05:28:16 66° E 05:34:33 10° NNE
IRS-1C Rocket 4.4 05:23:35 10° N 05:28:35 45° WNW 05:33:33 10° SW
Cosmos 2263 Rocket 2.6 05:23:43 10° NNW 05:29:22 66° ENE 05:35:01 10° SSE
Cosmos 2173 Rocket 4.3 05:25:39 10° S 05:31:46 69° E 05:37:52 10° NNE
Lacrosse 5 rocket 3.5 05:34:29 11° SW 05:34:29 11° SW 05:34:59 10° SSW
USA 116 4.4 05:30:38 10° S 05:35:04 48° W 05:39:59 10° NNW
Cosmos 1269 Rocket 4.2 05:30:55 10° NNW 05:36:01 50° WSW 05:41:04 10° S
Cosmos 405 Rocket 3.1 05:33:52 10° SSW 05:37:37 40° WNW 05:41:18 10° N
Okean O Rocket 3.1 05:35:46 10° NNW 05:38:29 18° WNW 05:38:29 18° WNW
Cosmos 1802 Rocket 4.4 05:33:22 10° S 05:39:41 68° E 05:45:58 10° NNE
Cosmos 2061 Rocket 4.3 05:34:17 10° S 05:40:26 69° E 05:46:35 10° NNE
Meteor 1-14 Rocket 4.3 05:36:48 10° NNW 05:42:48 80° W 05:48:39 10° S
SKYMED 2 3.6 05:38:53 10° S 05:43:08 60° W 05:47:27 10° NNW
Radarsat Rocket 4.0 05:38:39 10° NNE 05:44:33 88° WNW 05:50:53 10° SSW
Cosmos 2322 Rocket 2.3 05:41:05 10° SW 05:46:39 57° WNW 05:52:17 10° NNE
Cosmos 374 Rocket 4.2 05:43:24 10° NW 05:47:38 74° WSW 05:51:26 10° SSE
PAYLOAD A 4.0 05:45:16 10° N 05:49:56 53° WNW 05:54:46 10° SSW
ISS -1.4 05:49:58 10° S 05:52:37 23° SE 05:55:17 10° ENE
Cosmos 405 4.2 05:49:57 10° NW 05:52:48 22° W 05:55:37 10° SW
NOAA 6 4.2 05:48:08 10° N 05:53:05 48° WNW 05:58:00 10° SW
Cosmos 2360 Rocket 2.6 05:48:36 10° SSW 05:54:13 70° ESE 05:59:52 10° NNE
Sich 1 Rocket 3.9 05:50:17 10° N 05:54:41 69° E 05:59:02 10° SSE
DMSP B5D1-3 4.4 05:51:01 10° S 05:56:06 79° WSW 06:01:14 10° NNW
Cosmos 1980 Rocket 3.7 05:54:41 14° WNW 05:56:56 17° NW 06:00:30 10° NNW
EO 1 Del DPAF 3.1 05:56:24 10° S 06:00:14 77° W 06:04:05 10° NNW
Landsat 4 3.7 05:57:48 10° S 06:01:26 55° WSW 06:05:06 10° NNW
Cosmos 1703 Rocket 3.6 05:57:20 10° S 06:01:48 82° W 06:06:18 10° N
Cosmos 1461 3.0 05:57:49 10° SSW 06:02:06 84° WNW 06:06:40 10° NNE
ATLAS 5 CENTAUR R/B 2.8 05:59:39 12° W 06:03:09 27° NW 06:07:25 10° NNE
Meteor 1-25 Rocket 4.4 05:58:38 10° NNW 06:04:15 57° W 06:09:54 10° S
Milstar 3 Cent rocket 4.5 06:00:21 10° SW 06:05:44 31° SSE 06:14:48 10° E
Lacrosse 4 Rocket 3.2 06:06:21 10° S 06:10:02 35° ESE 06:13:44 10° NE
Aureole 2 Rocket 2.0 06:14:18 10° SW 06:16:54 44° WNW 06:19:33 10° N
Cosmos 1908 Rocket 3.8 06:13:01 10° NNW 06:17:13 46° W 06:21:22 10° SSW
IDEFIX/ARIANE 42P 3.4 06:13:09 10° N 06:17:37 29° WNW 06:22:03 10° SW
Cosmos 1733 Rocket 4.5 06:17:04 10° NW 06:20:01 18° W 06:22:59 10° SW
Cosmos 1725 Rocket 4.1 06:16:46 10° S 06:23:03 89° ESE 06:29:25 10° N
